Time,TemperatureF,DewpointF,PressureIn,WindDirection,WindDirectionDegrees,WindSpeedMPH,WindSpeedGustMPH,Humidity,HourlyPrecipIn,Conditions,Clouds,dailyrainin,SoftwareType,DateUTC
2013-05-25 00:00:00,46.6,40.4,30.24,WSW,251,0.0,0.0,79,0.00,CLR,,0.00,WeatherDisplay:10.37,2013-05-25 04:00:00,
2013-05-25 00:01:00,46.6,40.4,30.24,WSW,251,0.0,0.0,79,0.00,CLR,,0.00,WeatherDisplay:10.37,2013-05-25 04:01:00,
2013-05-25 00:06:00,46.4,40.6,30.24,WSW,251,0.0,1.1,80,0.00,CLR,,0.00,WeatherDisplay:10.37,2013-05-25 04:06:00,
2013-05-25 00:11:00,46.3,40.1,30.24,WSW,251,0.0,0.0,79,0.00,CLR,,0.00,WeatherDisplay:10.37,2013-05-25 04:11:00,
2013-05-25 00:16:00,46.2,40.7,30.24,WSW,251,0.0,0.0,81,0.00,CLR,,0.00,WeatherDisplay:10.37,2013-05-25 04:16:00,
2013-05-25 00:21:00,46.0,40.5,30.25,WSW,251,0.0,0.0,81,0.00,CLR,,0.00,WeatherDisplay:10.37,2013-05-25 04:21:00,
2013-05-25 00:26:00,45.8,40.3,30.25,WSW,251,0.0,0.0,81,0.00,CLR,,0.00,WeatherDisplay:10.37,2013-05-25 04:26:00,
2013-05-25 00:31:00,45.5,40.3,30.25,WSW,251,0.0,1.2,82,0.00,CLR,,0.00,WeatherDisplay:10.37,2013-05-25 04:31:00,
2013-05-25 00:36:00,45.4,40.5,30.25,WSW,251,0.0,0.0,83,0.00,CLR,,0.00,WeatherDisplay:10.37,2013-05-25 04:36:00,
2013-05-25 00:41:00,45.3,40.1,30.25,WSW,251,0.0,0.0,82,0.00,CLR,,0.00,WeatherDisplay:10.37,2013-05-25 04:41:00,
2013-05-25 00:46:00,45.3,39.8,30.25,WSW,251,0.0,0.0,81,0.00,CLR,,0.00,WeatherDisplay:10.37,2013-05-25 04:46:00,
2013-05-25 00:51:00,45.2,39.7,30.25,WSW,251,0.0,0.0,81,0.00,CLR,,0.00,WeatherDisplay:10.37,2013-05-25 04:51:00,
2013-05-25 00:56:00,45.2,40.0,30.25,WSW,251,0.0,0.0,82,0.00,CLR,,0.00,WeatherDisplay:10.37,2013-05-25 04:56:00,
2013-05-25 01:01:00,45.1,39.9,30.25,WSW,251,0.0,1.1,82,0.00,CLR,,0.00,WeatherDisplay:10.37,2013-05-25 05:01:00,
2013-05-25 01:06:00,45.0,40.1,30.25,WSW,251,0.0,0.0,83,0.00,CLR,,0.00,WeatherDisplay:10.37,2013-05-25 05:06:00,
2013-05-25 01:11:00,44.9,40.0,30.25,WSW,251,0.0,1.1,83,0.00,CLR,,0.00,WeatherDisplay:10.37,2013-05-25 05:11:00,
2013-05-25 01:16:00,44.7,39.9,30.25,WSW,251,0.1,1.1,83,0.00,CLR,,0.00,WeatherDisplay:10.37,2013-05-25 05:16:00,
2013-05-25 01:21:00,44.7,39.9,30.25,WSW,251,0.0,0.0,83,0.00,CLR,,0.00,WeatherDisplay:10.37,2013-05-25 05:21:00,
2013-05-25 01:26:00,44.5,40.0,30.25,WSW,251,0.0,0.0,84,0.00,CLR,,0.00,WeatherDisplay:10.37,2013-05-25 05:26:00,
2013-05-25 01:31:00,44.3,39.8,30.25,WSW,251,0.0,0.0,84,0.00,CLR,,0.00,WeatherDisplay:10.37,2013-05-25 05:31:00,
2013-05-25 01:36:00,44.0,39.8,30.25,WSW,251,0.0,1.1,85,0.00,CLR,,0.00,WeatherDisplay:10.37,2013-05-25 05:36:00,
2013-05-25 01:41:00,43.9,39.7,30.25,WSW,251,0.0,0.0,85,0.00,CLR,,0.00,WeatherDisplay:10.37,2013-05-25 05:41:00,
2013-05-25 01:46:00,43.9,39.7,30.25,WSW,251,0.0,0.0,85,0.00,CLR,,0.00,WeatherDisplay:10.37,2013-05-25 05:46:00,
2013-05-25 01:51:00,43.7,39.8,30.25,WSW,251,0.0,0.0,86,0.00,CLR,,0.00,WeatherDisplay:10.37,2013-05-25 05:51:00,
2013-05-25 01:56:00,43.4,39.5,30.25,WSW,251,0.0,0.0,86,0.00,CLR,,0.00,WeatherDisplay:10.37,2013-05-25 05:56:00,
2013-05-25 02:01:00,43.2,39.3,30.25,WSW,251,0.0,0.0,86,0.00,CLR,,0.00,WeatherDisplay:10.37,2013-05-25 06:01:00,
2013-05-25 02:06:00,43.0,39.4,30.26,WSW,251,0.0,0.0,87,0.00,CLR,,0.00,WeatherDisplay:10.37,2013-05-25 06:06:00,
2013-05-25 02:11:00,42.9,39.6,30.26,WSW,251,0.0,0.0,88,0.00,CLR,,0.00,WeatherDisplay:10.37,2013-05-25 06:11:00,
2013-05-25 02:16:00,42.8,39.5,30.26,WSW,251,0.0,0.0,88,0.00,CLR,,0.00,WeatherDisplay:10.37,2013-05-25 06:16:00,
2013-05-25 02:21:00,42.5,39.2,30.26,WSW,251,0.0,0.0,88,0.00,CLR,,0.00,WeatherDisplay:10.37,2013-05-25 06:21:00,
2013-05-25 02:26:00,42.5,39.5,30.26,WSW,251,0.0,0.0,89,0.00,CLR,,0.00,WeatherDisplay:10.37,2013-05-25 06:26:00,
2013-05-25 02:31:00,42.5,39.5,30.26,WSW,251,0.0,0.0,89,0.00,CLR,,0.00,WeatherDisplay:10.37,2013-05-25 06:31:00,
2013-05-25 02:36:00,42.4,39.4,30.27,WSW,251,0.0,0.0,89,0.00,CLR,,0.00,WeatherDisplay:10.37,2013-05-25 06:36:00,
2013-05-25 02:41:00,42.3,39.3,30.27,WSW,251,0.0,0.0,89,0.00,CLR,,0.00,WeatherDisplay:10.37,2013-05-25 06:41:00,
2013-05-25 02:46:00,42.2,39.2,30.27,WSW,251,0.0,0.0,89,0.00,CLR,,0.00,WeatherDisplay:10.37,2013-05-25 06:46:00,
2013-05-25 02:51:00,42.0,39.3,30.27,WSW,251,0.0,0.0,90,0.00,CLR,,0.00,WeatherDisplay:10.37,2013-05-25 06:51:00,
2013-05-25 02:56:00,41.9,39.2,30.27,WSW,251,0.0,0.0,90,0.00,CLR,,0.00,WeatherDisplay:10.37,2013-05-25 06:56:00,
2013-05-25 03:01:00,41.8,39.4,30.27,WSW,251,0.1,1.1,91,0.00,CLR,,0.00,WeatherDisplay:10.37,2013-05-25 07:01:00,
2013-05-25 03:06:00,41.8,39.1,30.27,WSW,251,0.0,0.0,90,0.00,CLR,,0.00,WeatherDisplay:10.37,2013-05-25 07:06:00,
2013-05-25 03:11:00,41.8,39.4,30.27,WSW,251,0.0,0.0,91,0.00,CLR,,0.00,WeatherDisplay:10.37,2013-05-25 07:11:00,
2013-05-25 03:16:00,41.7,39.3,30.27,WSW,251,0.0,0.0,91,0.00,CLR,,0.00,WeatherDisplay:10.37,2013-05-25 07:16:00,
2013-05-25 03:21:00,41.6,39.2,30.27,WSW,251,0.0,0.0,91,0.00,CLR,,0.00,WeatherDisplay:10.37,2013-05-25 07:21:00,
2013-05-25 03:27:00,41.6,39.2,30.26,WSW,251,0.1,1.1,91,0.00,CLR,,0.00,WeatherDisplay:10.37,2013-05-25 07:27:00,
2013-05-25 03:32:00,41.5,39.1,30.26,WSW,251,0.0,0.0,91,0.00,CLR,,0.00,WeatherDisplay:10.37,2013-05-25 07:32:00,
2013-05-25 03:37:00,41.5,39.3,30.27,WSW,251,0.0,0.0,92,0.00,CLR,,0.00,WeatherDisplay:10.37,2013-05-25 07:37:00,
2013-05-25 03:42:00,41.6,39.4,30.27,WSW,251,0.0,0.0,92,0.00,CLR,,0.00,WeatherDisplay:10.37,2013-05-25 07:42:00,
2013-05-25 03:47:00,41.6,39.4,30.27,WSW,251,0.0,0.0,92,0.00,CLR,,0.00,WeatherDisplay:10.37,2013-05-25 07:47:00,
2013-05-25 03:52:00,41.7,39.5,30.27,WSW,251,0.0,0.0,92,0.00,CLR,,0.00,WeatherDisplay:10.37,2013-05-25 07:52:00,
2013-05-25 03:57:00,42.0,39.8,30.27,WSW,251,0.0,0.0,92,0.00,CLR,,0.00,WeatherDisplay:10.37,2013-05-25 07:57:00,
2013-05-25 04:02:00,42.2,39.5,30.27,WSW,251,0.0,1.1,90,0.00,CLR,,0.00,WeatherDisplay:10.37,2013-05-25 08:02:00,
2013-05-25 04:07:00,42.4,39.7,30.27,WSW,251,0.0,0.0,90,0.00,CLR,,0.00,WeatherDisplay:10.37,2013-05-25 08:07:00,
2013-05-25 04:12:00,42.4,39.4,30.27,WSW,251,0.0,0.0,89,0.00,CLR,,0.00,WeatherDisplay:10.37,2013-05-25 08:12:00,
2013-05-25 04:17:00,42.3,39.3,30.27,WSW,251,0.0,0.0,89,0.00,CLR,,0.00,WeatherDisplay:10.37,2013-05-25 08:17:00,
2013-05-25 04:22:00,42.1,39.4,30.26,WSW,251,0.0,0.0,90,0.00,CLR,,0.00,WeatherDisplay:10.37,2013-05-25 08:22:00,
2013-05-25 04:27:00,41.9,39.2,30.26,WSW,251,0.0,0.0,90,0.00,CLR,,0.00,WeatherDisplay:10.37,2013-05-25 08:27:00,
2013-05-25 04:32:00,41.8,39.1,30.26,WSW,251,0.0,0.0,90,0.00,CLR,,0.00,WeatherDisplay:10.37,2013-05-25 08:32:00,
2013-05-25 04:37:00,41.8,39.1,30.25,WSW,251,0.0,0.0,90,0.00,CLR,,0.00,WeatherDisplay:10.37,2013-05-25 08:37:00,
2013-05-25 04:42:00,41.8,39.1,30.25,WSW,251,0.0,0.0,90,0.00,CLR,,0.00,WeatherDisplay:10.37,2013-05-25 08:42:00,
2013-05-25 04:47:00,41.7,39.3,30.25,WSW,251,0.0,0.0,91,0.00,CLR,,0.00,WeatherDisplay:10.37,2013-05-25 08:47:00,
2013-05-25 04:52:00,41.6,39.2,30.25,WSW,251,0.0,0.0,91,0.00,CLR,,0.00,WeatherDisplay:10.37,2013-05-25 08:52:00,
2013-05-25 04:57:00,41.5,39.1,30.25,WSW,251,0.0,0.0,91,0.00,CLR,,0.00,WeatherDisplay:10.37,2013-05-25 08:57:00,
2013-05-25 05:02:00,41.4,39.3,30.25,WSW,251,0.0,0.0,92,0.00,CLR,,0.00,WeatherDisplay:10.37,2013-05-25 09:02:00,
2013-05-25 05:07:00,41.4,39.3,30.25,WSW,251,0.0,0.0,92,0.00,CLR,,0.00,WeatherDisplay:10.37,2013-05-25 09:07:00,
2013-05-25 05:12:00,41.3,39.2,30.25,WSW,251,0.0,0.0,92,0.00,CLR,,0.00,WeatherDisplay:10.37,2013-05-25 09:12:00,
2013-05-25 05:17:00,41.2,39.1,30.25,WSW,251,0.0,0.0,92,0.00,CLR,,0.00,WeatherDisplay:10.37,2013-05-25 09:17:00,
2013-05-25 05:22:00,41.1,39.0,30.25,WSW,251,0.0,0.0,92,0.00,CLR,,0.00,WeatherDisplay:10.37,2013-05-25 09:22:00,
2013-05-25 05:27:00,41.0,38.9,30.25,WSW,251,0.0,0.0,92,0.00,CLR,,0.00,WeatherDisplay:10.37,2013-05-25 09:27:00,
2013-05-25 05:32:00,41.0,38.9,30.25,WSW,251,0.0,0.0,92,0.00,CLR,,0.00,WeatherDisplay:10.37,2013-05-25 09:32:00,
2013-05-25 05:37:00,41.0,38.9,30.25,WSW,251,0.0,0.0,92,0.00,CLR,,0.00,WeatherDisplay:10.37,2013-05-25 09:37:00,
2013-05-25 05:42:00,41.0,38.9,30.26,WSW,251,0.0,0.0,92,0.00,CLR,,0.00,WeatherDisplay:10.37,2013-05-25 09:42:00,
2013-05-25 05:47:00,41.1,39.0,30.26,WSW,251,0.0,1.1,92,0.00,CLR,,0.00,WeatherDisplay:10.37,2013-05-25 09:47:00,
2013-05-25 05:52:00,41.0,38.6,30.26,WSW,251,0.0,1.1,91,0.00,CLR,,0.00,WeatherDisplay:10.37,2013-05-25 09:52:00,
2013-05-25 05:57:00,41.0,38.9,30.26,WSW,251,0.0,0.0,92,0.00,CLR,,0.00,WeatherDisplay:10.37,2013-05-25 09:57:00,
2013-05-25 06:02:00,40.9,38.8,30.26,WSW,251,0.0,2.3,92,0.00,CLR,,0.00,WeatherDisplay:10.37,2013-05-25 10:02:00,
2013-05-25 06:07:00,40.9,38.8,30.27,WSW,251,0.0,1.1,92,0.00,CLR,,0.00,WeatherDisplay:10.37,2013-05-25 10:07:00,
2013-05-25 06:12:00,40.9,38.8,30.27,WSW,251,0.0,0.0,92,0.00,CLR,,0.00,WeatherDisplay:10.37,2013-05-25 10:12:00,
2013-05-25 06:17:00,40.9,38.8,30.27,WSW,251,0.0,0.0,92,0.00,CLR,,0.00,WeatherDisplay:10.37,2013-05-25 10:17:00,
2013-05-25 06:22:00,40.7,38.6,30.27,WSW,251,0.0,0.0,92,0.00,CLR,,0.00,WeatherDisplay:10.37,2013-05-25 10:22:00,
2013-05-25 06:27:00,40.7,38.6,30.27,WSW,251,0.0,0.0,92,0.00,CLR,,0.00,WeatherDisplay:10.37,2013-05-25 10:27:00,
2013-05-25 06:32:00,40.7,38.6,30.27,WSW,251,0.0,0.0,92,0.00,CLR,,0.00,WeatherDisplay:10.37,2013-05-25 10:32:00,
2013-05-25 06:37:00,40.7,38.6,30.28,WSW,251,0.0,0.0,92,0.00,CLR,,0.00,WeatherDisplay:10.37,2013-05-25 10:37:00,
2013-05-25 06:42:00,40.7,38.6,30.28,WSW,251,0.0,1.1,92,0.00,CLR,,0.00,WeatherDisplay:10.37,2013-05-25 10:42:00,
2013-05-25 06:47:00,40.8,38.7,30.28,WSW,251,0.0,0.0,92,0.00,CLR,,0.00,WeatherDisplay:10.37,2013-05-25 10:47:00,
2013-05-25 06:52:00,41.0,39.1,30.29,WNW,295,0.0,1.1,93,0.00,CLR,,0.00,WeatherDisplay:10.37,2013-05-25 10:52:00,
2013-05-25 06:57:00,41.2,39.3,30.29,WNW,295,0.0,0.0,93,0.00,CLR,,0.00,WeatherDisplay:10.37,2013-05-25 10:57:00,
2013-05-25 07:02:00,41.4,39.5,30.29,WNW,295,0.0,0.0,93,0.00,CLR,,0.00,WeatherDisplay:10.37,2013-05-25 11:02:00,
2013-05-25 07:07:00,41.5,39.6,30.29,WNW,295,0.0,0.0,93,0.00,CLR,,0.00,WeatherDisplay:10.37,2013-05-25 11:07:00,
2013-05-25 07:12:00,41.9,39.7,30.30,WNW,295,0.0,0.0,92,0.00,CLR,,0.00,WeatherDisplay:10.37,2013-05-25 11:12:00,
2013-05-25 07:17:00,42.2,40.0,30.30,WNW,295,0.0,0.0,92,0.00,CLR,,0.00,WeatherDisplay:10.37,2013-05-25 11:17:00,
2013-05-25 07:22:00,42.7,40.3,30.30,WNW,295,0.0,0.0,91,0.00,CLR,,0.00,WeatherDisplay:10.37,2013-05-25 11:22:00,
2013-05-25 07:27:00,43.1,40.7,30.30,WNW,295,0.0,0.0,91,0.00,CLR,,0.00,WeatherDisplay:10.37,2013-05-25 11:27:00,
2013-05-25 07:32:00,43.5,41.0,30.30,WNW,295,0.0,0.0,91,0.00,CLR,,0.00,WeatherDisplay:10.37,2013-05-25 11:32:00,
2013-05-25 07:37:00,44.1,41.1,30.31,WNW,295,0.0,0.0,89,0.00,CLR,,0.00,WeatherDisplay:10.37,2013-05-25 11:37:00,
2013-05-25 07:42:00,44.9,41.3,30.31,SSW,208,0.0,1.1,87,0.00,CLR,,0.00,WeatherDisplay:10.37,2013-05-25 11:42:00,
2013-05-25 07:47:00,45.8,40.0,30.31,SW,215,1.8,2.4,80,0.00,CLR,,0.00,WeatherDisplay:10.37,2013-05-25 11:47:00,
2013-05-25 07:52:00,47.2,41.7,30.32,SW,232,2.1,3.5,81,0.00,CLR,,0.00,WeatherDisplay:10.37,2013-05-25 11:52:00,
2013-05-25 07:57:00,48.6,41.0,30.32,WSW,247,0.7,4.6,75,0.00,CLR,,0.00,WeatherDisplay:10.37,2013-05-25 11:57:00,
2013-05-25 08:02:00,49.4,39.3,30.32,ESE,121,0.6,5.8,68,0.00,CLR,,0.00,WeatherDisplay:10.37,2013-05-25 12:02:00,
2013-05-25 08:07:00,50.6,38.5,30.32,SSW,192,0.4,1.2,63,0.00,CLR,,0.00,WeatherDisplay:10.37,2013-05-25 12:07:00,
2013-05-25 08:12:00,50.1,41.8,30.32,SSW,200,3.4,3.5,73,0.00,CLR,,0.00,WeatherDisplay:10.37,2013-05-25 12:12:00,
2013-05-25 08:17:00,50.4,37.4,30.32,SW,227,1.3,6.1,61,0.00,CLR,,0.00,WeatherDisplay:10.37,2013-05-25 12:17:00,
2013-05-25 08:22:00,50.8,37.4,30.32,SSW,198,3.4,8.1,60,0.00,CLR,,0.00,WeatherDisplay:10.37,2013-05-25 12:22:00,
2013-05-25 08:27:00,50.8,39.1,30.32,SSW,193,2.5,5.8,64,0.00,CLR,,0.00,WeatherDisplay:10.37,2013-05-25 12:27:00,
2013-05-25 08:32:00,51.0,38.4,30.32,South,184,3.4,6.9,62,0.00,CLR,,0.00,WeatherDisplay:10.37,2013-05-25 12:32:00,
2013-05-25 08:37:00,51.4,36.7,30.32,SSW,202,2.5,6.1,57,0.00,CLR,,0.00,WeatherDisplay:10.37,2013-05-25 12:37:00,
2013-05-25 08:42:00,51.7,37.8,30.32,East,87,3.0,9.2,59,0.00,CLR,,0.00,WeatherDisplay:10.37,2013-05-25 12:42:00,
2013-05-25 08:47:00,52.1,38.2,30.32,South,190,0.0,0.0,59,0.00,CLR,,0.00,WeatherDisplay:10.37,2013-05-25 12:47:00,
2013-05-25 08:52:00,52.6,40.8,30.33,South,191,0.0,1.1,64,0.00,CLR,,0.00,WeatherDisplay:10.37,2013-05-25 12:52:00,
2013-05-25 08:57:00,52.0,38.5,30.32,SSW,194,4.0,4.6,60,0.00,CLR,,0.00,WeatherDisplay:10.37,2013-05-25 12:57:00,
2013-05-25 09:02:00,52.5,36.3,30.32,SE,136,0.1,1.2,54,0.00,CLR,,0.00,WeatherDisplay:10.37,2013-05-25 13:02:00,
2013-05-25 09:07:00,52.7,38.8,30.32,SSW,199,3.7,4.9,59,0.00,CLR,,0.00,WeatherDisplay:10.37,2013-05-25 13:07:00,
2013-05-25 09:12:00,53.0,36.3,30.32,SW,222,2.0,4.9,53,0.00,CLR,,0.00,WeatherDisplay:10.37,2013-05-25 13:12:00,
2013-05-25 09:17:00,53.7,33.9,30.32,SSW,209,6.1,6.9,47,0.00,CLR,,0.00,WeatherDisplay:10.37,2013-05-25 13:17:00,
2013-05-25 09:22:00,53.9,37.6,30.32,SSW,208,0.0,1.1,54,0.00,CLR,,0.00,WeatherDisplay:10.37,2013-05-25 13:22:00,
2013-05-25 09:27:00,54.1,36.4,30.32,SSW,208,0.0,0.0,51,0.00,CLR,,0.00,WeatherDisplay:10.37,2013-05-25 13:27:00,
2013-05-25 09:32:00,54.7,39.8,30.32,SSW,208,0.1,1.2,57,0.00,CLR,,0.00,WeatherDisplay:10.37,2013-05-25 13:32:00,
2013-05-25 09:37:00,55.0,34.0,30.32,WSW,247,0.2,2.4,45,0.00,CLR,,0.00,WeatherDisplay:10.37,2013-05-25 13:37:00,
2013-05-25 09:42:00,55.2,39.3,30.32,WSW,247,0.0,1.2,55,0.00,CLR,,0.00,WeatherDisplay:10.37,2013-05-25 13:42:00,
2013-05-25 09:47:00,55.7,33.5,30.32,South,189,0.0,0.0,43,0.00,CLR,,0.00,WeatherDisplay:10.37,2013-05-25 13:47:00,
2013-05-25 09:52:00,56.2,36.2,30.32,East,83,1.8,3.7,47,0.00,CLR,,0.00,WeatherDisplay:10.37,2013-05-25 13:52:00,
2013-05-25 09:57:00,57.0,34.7,30.32,East,81,1.6,3.5,43,0.00,CLR,,0.00,WeatherDisplay:10.37,2013-05-25 13:57:00,
2013-05-25 10:02:00,57.5,36.9,30.32,SE,132,0.0,1.1,46,0.00,CLR,,0.00,WeatherDisplay:10.37,2013-05-25 14:02:00,
2013-05-25 10:07:00,57.5,39.5,30.32,ENE,58,0.0,0.0,51,0.00,CLR,,0.00,WeatherDisplay:10.37,2013-05-25 14:07:00,
2013-05-25 10:12:00,57.8,41.3,30.32,ENE,77,3.5,6.9,54,0.00,CLR,,0.00,WeatherDisplay:10.37,2013-05-25 14:12:00,
2013-05-25 10:17:00,58.1,36.3,30.32,WSW,237,1.9,3.5,44,0.00,CLR,,0.00,WeatherDisplay:10.37,2013-05-25 14:17:00,
2013-05-25 10:23:00,58.2,36.4,30.32,East,98,1.6,2.4,44,0.00,CLR,,0.00,WeatherDisplay:10.37,2013-05-25 14:23:00,
2013-05-25 10:27:00,58.7,33.1,30.32,SW,222,3.3,4.6,38,0.00,CLR,,0.00,WeatherDisplay:10.37,2013-05-25 14:27:00,
2013-05-25 10:33:00,59.1,32.1,30.32,SSW,212,5.3,6.9,36,0.00,CLR,,0.00,WeatherDisplay:10.37,2013-05-25 14:33:00,
2013-05-25 10:37:00,58.6,31.7,30.32,SSW,197,7.8,8.1,36,0.00,CLR,,0.00,WeatherDisplay:10.37,2013-05-25 14:37:00,
2013-05-25 10:42:00,58.8,32.6,30.32,West,273,0.5,2.3,37,0.00,CLR,,0.00,WeatherDisplay:10.37,2013-05-25 14:42:00,
2013-05-25 10:48:00,59.3,30.2,30.32,SSW,206,7.4,8.5,33,0.00,CLR,,0.00,WeatherDisplay:10.37,2013-05-25 14:48:00,
2013-05-25 10:53:00,59.5,31.8,30.32,SSW,198,4.9,8.5,35,0.00,CLR,,0.00,WeatherDisplay:10.37,2013-05-25 14:53:00,
2013-05-25 10:58:00,60.1,31.6,30.32,SE,135,0.0,0.0,34,0.00,CLR,,0.00,WeatherDisplay:10.37,2013-05-25 14:58:00,
2013-05-25 11:03:00,60.9,32.3,30.32,ESE,112,0.8,3.5,34,0.00,CLR,,0.00,WeatherDisplay:10.37,2013-05-25 15:03:00,
2013-05-25 11:08:00,61.6,32.9,30.31,ESE,112,2.4,3.5,34,0.00,CLR,,0.00,WeatherDisplay:10.37,2013-05-25 15:08:00,
2013-05-25 11:13:00,62.1,34.1,30.30,West,270,0.0,0.0,35,0.00,CLR,,0.00,WeatherDisplay:10.37,2013-05-25 15:13:00,
2013-05-25 11:17:00,62.5,33.7,30.30,ESE,121,0.1,1.1,34,0.00,CLR,,0.00,WeatherDisplay:10.37,2013-05-25 15:17:00,
2013-05-25 11:22:00,62.4,32.1,30.30,ENE,78,0.3,2.3,32,0.00,CLR,,0.00,WeatherDisplay:10.37,2013-05-25 15:22:00,
2013-05-25 11:28:00,62.6,29.9,30.31,SE,129,0.1,1.2,29,0.00,CLR,,0.00,WeatherDisplay:10.37,2013-05-25 15:28:00,
2013-05-25 11:33:00,62.5,29.8,30.31,SSW,207,2.2,3.7,29,0.00,CLR,,0.00,WeatherDisplay:10.37,2013-05-25 15:33:00,
2013-05-25 11:38:00,62.5,28.0,30.30,SW,222,1.7,3.5,27,0.00,CLR,,0.00,WeatherDisplay:10.37,2013-05-25 15:38:00,
2013-05-25 11:43:00,62.7,30.0,30.30,West,278,3.6,3.6,29,0.00,CLR,,0.00,WeatherDisplay:10.37,2013-05-25 15:43:00,
2013-05-25 11:48:00,63.3,28.7,30.30,SSW,208,3.6,4.6,27,0.00,CLR,,0.00,WeatherDisplay:10.37,2013-05-25 15:48:00,
2013-05-25 11:53:00,63.5,31.5,30.31,South,178,0.1,0.0,30,0.00,CLR,,0.00,WeatherDisplay:10.37,2013-05-25 15:53:00,
2013-05-25 11:58:00,64.4,34.6,30.30,East,100,0.0,0.0,33,0.00,CLR,,0.00,WeatherDisplay:10.37,2013-05-25 15:58:00,
2013-05-25 12:03:00,64.7,36.4,30.31,ENE,60,4.5,4.5,35,0.00,CLR,,0.00,WeatherDisplay:10.37,2013-05-25 16:03:00,
2013-05-25 12:08:00,64.9,32.7,30.30,NE,51,1.0,4.6,30,0.00,CLR,,0.00,WeatherDisplay:10.37,2013-05-25 16:08:00,
2013-05-25 12:13:00,65.8,35.9,30.31,East,91,0.2,1.1,33,0.00,CLR,,0.00,WeatherDisplay:10.37,2013-05-25 16:13:00,
2013-05-25 12:18:00,66.3,36.3,30.31,West,268,0.1,3.5,33,0.00,CLR,,0.00,WeatherDisplay:10.37,2013-05-25 16:18:00,
2013-05-25 12:23:00,65.7,36.5,30.29,SW,224,2.1,3.5,34,0.00,CLR,,0.00,WeatherDisplay:10.37,2013-05-25 16:23:00,
2013-05-25 12:28:00,66.2,33.8,30.30,NNE,15,4.5,8.1,30,0.00,CLR,,0.00,WeatherDisplay:10.37,2013-05-25 16:28:00,
2013-05-25 12:33:00,67.0,33.7,30.29,North,10,2.1,4.6,29,0.00,CLR,,0.00,WeatherDisplay:10.37,2013-05-25 16:33:00,
2013-05-25 12:38:00,66.6,31.5,30.27,NNW,344,0.1,1.2,27,0.00,CLR,,0.00,WeatherDisplay:10.37,2013-05-25 16:38:00,
2013-05-25 12:43:00,66.5,33.2,30.28,SSE,158,0.1,1.2,29,0.00,CLR,,0.00,WeatherDisplay:10.37,2013-05-25 16:43:00,
2013-05-25 12:48:00,67.0,35.3,30.27,NE,56,3.6,4.6,31,0.00,CLR,,0.00,WeatherDisplay:10.37,2013-05-25 16:48:00,
2013-05-25 12:53:00,67.7,39.8,30.27,NNE,31,0.7,3.5,36,0.00,CLR,,0.00,WeatherDisplay:10.37,2013-05-25 16:53:00,
2013-05-25 12:58:00,68.1,38.7,30.27,East,87,0.0,0.0,34,0.00,CLR,,0.00,WeatherDisplay:10.37,2013-05-25 16:58:00,
2013-05-25 13:03:00,68.4,34.9,30.27,ENE,71,3.6,5.8,29,0.00,CLR,,0.00,WeatherDisplay:10.37,2013-05-25 17:03:00,
2013-05-25 13:08:00,68.8,39.3,30.26,ENE,64,1.3,4.9,34,0.00,CLR,,0.00,WeatherDisplay:10.37,2013-05-25 17:08:00,
2013-05-25 13:13:00,68.9,29.5,30.26,SE,126,0.0,1.1,23,0.00,CLR,,0.00,WeatherDisplay:10.37,2013-05-25 17:13:00,
2013-05-25 13:18:00,70.0,33.5,30.26,NNE,26,0.3,1.2,26,0.00,CLR,,0.00,WeatherDisplay:10.37,2013-05-25 17:18:00,
2013-05-25 13:23:00,70.0,30.5,30.25,ENE,74,1.2,3.7,23,0.00,CLR,,0.00,WeatherDisplay:10.37,2013-05-25 17:23:00,
2013-05-25 13:28:00,69.9,40.2,30.26,East,86,5.9,7.3,34,0.00,CLR,,0.00,WeatherDisplay:10.37,2013-05-25 17:28:00,
2013-05-25 13:33:00,70.1,41.9,30.26,SE,131,2.7,8.1,36,0.00,CLR,,0.00,WeatherDisplay:10.37,2013-05-25 17:33:00,
2013-05-25 13:38:00,69.5,40.6,30.25,ESE,118,1.6,2.3,35,0.00,CLR,,0.00,WeatherDisplay:10.37,2013-05-25 17:38:00,
2013-05-25 13:43:00,69.7,43.6,30.25,East,92,0.9,2.3,39,0.00,CLR,,0.00,WeatherDisplay:10.37,2013-05-25 17:43:00,
2013-05-25 13:48:00,69.7,34.2,30.25,SE,125,8.5,11.5,27,0.00,CLR,,0.00,WeatherDisplay:10.37,2013-05-25 17:48:00,
2013-05-25 13:53:00,70.3,37.4,30.25,SE,136,0.4,2.4,30,0.00,CLR,,0.00,WeatherDisplay:10.37,2013-05-25 17:53:00,
2013-05-25 13:58:00,70.4,38.3,30.25,East,93,3.3,8.1,31,0.00,CLR,,0.00,WeatherDisplay:10.37,2013-05-25 17:58:00,
2013-05-25 14:03:00,70.8,43.9,30.25,NE,47,7.4,9.2,38,0.00,CLR,,0.00,WeatherDisplay:10.37,2013-05-25 18:03:00,
2013-05-25 14:08:00,71.2,46.9,30.24,ENE,73,6.3,8.1,42,0.00,CLR,,0.00,WeatherDisplay:10.37,2013-05-25 18:08:00,
2013-05-25 14:13:00,72.1,45.8,30.24,NNE,32,6.0,11.5,39,0.00,CLR,,0.00,WeatherDisplay:10.37,2013-05-25 18:13:00,
2013-05-25 14:18:00,71.6,40.2,30.24,South,173,1.1,4.6,32,0.00,CLR,,0.00,WeatherDisplay:10.37,2013-05-25 18:18:00,
2013-05-25 14:23:00,72.0,42.8,30.24,ESE,115,2.4,5.8,35,0.00,CLR,,0.00,WeatherDisplay:10.37,2013-05-25 18:23:00,
2013-05-25 14:28:00,71.4,33.7,30.23,ENE,77,4.4,6.1,25,0.00,CLR,,0.00,WeatherDisplay:10.37,2013-05-25 18:28:00,
2013-05-25 14:33:00,72.0,34.2,30.23,NNW,331,1.6,2.4,25,0.00,CLR,,0.00,WeatherDisplay:10.37,2013-05-25 18:33:00,
2013-05-25 14:38:00,72.6,30.4,30.22,NW,326,0.1,1.1,21,0.00,CLR,,0.00,WeatherDisplay:10.37,2013-05-25 18:38:00,
2013-05-25 14:43:00,72.5,35.6,30.22,East,79,4.2,6.9,26,0.00,CLR,,0.00,WeatherDisplay:10.37,2013-05-25 18:43:00,
2013-05-25 14:48:00,72.6,36.7,30.23,East,88,3.0,3.5,27,0.00,CLR,,0.00,WeatherDisplay:10.37,2013-05-25 18:48:00,
2013-05-25 14:53:00,72.8,42.0,30.22,East,79,6.0,6.9,33,0.00,CLR,,0.00,WeatherDisplay:10.37,2013-05-25 18:53:00,
2013-05-25 14:58:00,72.9,46.5,30.22,ENE,73,5.2,5.8,39,0.00,CLR,,0.00,WeatherDisplay:10.37,2013-05-25 18:58:00,
2013-05-25 15:03:00,72.6,44.8,30.22,ENE,69,3.0,8.1,37,0.00,CLR,,0.00,WeatherDisplay:10.37,2013-05-25 19:03:00,
2013-05-25 15:08:00,72.4,43.2,30.21,NE,47,9.8,13.8,35,0.00,CLR,,0.00,WeatherDisplay:10.37,2013-05-25 19:08:00,
2013-05-25 15:13:00,72.6,44.1,30.21,NE,46,8.1,11.5,36,0.00,CLR,,0.00,WeatherDisplay:10.37,2013-05-25 19:13:00,
2013-05-25 15:18:00,72.4,42.4,30.21,NE,56,5.4,5.4,34,0.00,CLR,,0.00,WeatherDisplay:10.37,2013-05-25 19:18:00,
2013-05-25 15:23:00,72.6,43.4,30.21,ENE,77,4.9,8.5,35,0.00,CLR,,0.00,WeatherDisplay:10.37,2013-05-25 19:23:00,
2013-05-25 15:28:00,72.8,45.7,30.21,ENE,69,3.2,4.6,38,0.00,CLR,,0.00,WeatherDisplay:10.37,2013-05-25 19:28:00,
2013-05-25 15:33:00,72.9,42.9,30.21,ENE,66,2.9,4.6,34,0.00,CLR,,0.00,WeatherDisplay:10.37,2013-05-25 19:33:00,
2013-05-25 15:38:00,73.0,43.0,30.21,NE,44,5.7,8.1,34,0.00,CLR,,0.00,WeatherDisplay:10.37,2013-05-25 19:38:00,
2013-05-25 15:43:00,73.4,44.8,30.21,ENE,62,5.6,8.1,36,0.00,CLR,,0.00,WeatherDisplay:10.37,2013-05-25 19:43:00,
2013-05-25 15:48:00,73.3,45.4,30.21,East,88,5.1,7.3,37,0.00,CLR,,0.00,WeatherDisplay:10.37,2013-05-25 19:48:00,
2013-05-25 15:53:00,72.7,41.1,30.21,ENE,68,4.6,8.5,32,0.00,CLR,,0.00,WeatherDisplay:10.37,2013-05-25 19:53:00,
2013-05-25 15:58:00,73.1,39.8,30.22,ENE,60,7.7,12.7,30,0.00,CLR,,0.00,WeatherDisplay:10.37,2013-05-25 19:58:00,
2013-05-25 16:03:00,72.9,39.6,30.21,East,91,2.7,3.5,30,0.00,CLR,,0.00,WeatherDisplay:10.37,2013-05-25 20:03:00,
2013-05-25 16:08:00,73.2,41.6,30.21,NNE,17,8.0,8.5,32,0.00,CLR,,0.00,WeatherDisplay:10.37,2013-05-25 20:08:00,
2013-05-25 16:13:00,73.3,42.4,30.21,NE,48,2.2,5.8,33,0.00,CLR,,0.00,WeatherDisplay:10.37,2013-05-25 20:13:00,
2013-05-25 16:18:00,73.7,41.2,30.21,ENE,78,2.9,6.1,31,0.00,CLR,,0.00,WeatherDisplay:10.37,2013-05-25 20:18:00,
2013-05-25 16:23:00,74.2,44.0,30.21,NE,56,3.2,5.8,34,0.00,CLR,,0.00,WeatherDisplay:10.37,2013-05-25 20:23:00,
2013-05-25 16:28:00,73.0,36.1,30.21,NE,50,3.9,6.9,26,0.00,CLR,,0.00,WeatherDisplay:10.37,2013-05-25 20:28:00,
2013-05-25 16:33:00,73.0,40.6,30.21,East,83,6.8,6.8,31,0.00,CLR,,0.00,WeatherDisplay:10.37,2013-05-25 20:33:00,
2013-05-25 16:38:00,73.1,40.7,30.21,ENE,73,6.0,8.1,31,0.00,CLR,,0.00,WeatherDisplay:10.37,2013-05-25 20:38:00,
2013-05-25 16:43:00,72.7,40.3,30.21,East,89,5.7,9.2,31,0.00,CLR,,0.00,WeatherDisplay:10.37,2013-05-25 20:43:00,
2013-05-25 16:48:00,72.5,41.0,30.21,NE,56,2.9,11.5,32,0.00,CLR,,0.00,WeatherDisplay:10.37,2013-05-25 20:48:00,
2013-05-25 16:53:00,72.8,41.2,30.21,NE,50,3.7,3.7,32,0.00,CLR,,0.00,WeatherDisplay:10.37,2013-05-25 20:53:00,
2013-05-25 16:58:00,72.8,42.8,30.21,ENE,62,2.6,3.5,34,0.00,CLR,,0.00,WeatherDisplay:10.37,2013-05-25 20:58:00,
2013-05-25 17:03:00,72.6,41.0,30.21,ENE,60,2.9,5.8,32,0.00,CLR,,0.00,WeatherDisplay:10.37,2013-05-25 21:03:00,
2013-05-25 17:08:00,72.4,41.7,30.21,NE,52,1.8,5.8,33,0.00,CLR,,0.00,WeatherDisplay:10.37,2013-05-25 21:08:00,
2013-05-25 17:13:00,72.5,40.1,30.20,East,79,7.2,9.2,31,0.00,CLR,,0.00,WeatherDisplay:10.37,2013-05-25 21:13:00,
2013-05-25 17:18:00,72.3,41.6,30.21,ENE,60,2.4,3.7,33,0.00,CLR,,0.00,WeatherDisplay:10.37,2013-05-25 21:18:00,
2013-05-25 17:23:00,71.9,37.9,30.21,NE,56,0.1,3.5,29,0.00,CLR,,0.00,WeatherDisplay:10.37,2013-05-25 21:23:00,
2013-05-25 17:28:00,71.5,40.9,30.21,North,355,4.2,6.1,33,0.00,CLR,,0.00,WeatherDisplay:10.37,2013-05-25 21:28:00,
2013-05-25 17:33:00,70.9,41.1,30.21,East,89,3.6,6.1,34,0.00,CLR,,0.00,WeatherDisplay:10.37,2013-05-25 21:33:00,
2013-05-25 17:38:00,70.5,40.8,30.22,ENE,74,2.0,4.6,34,0.00,CLR,,0.00,WeatherDisplay:10.37,2013-05-25 21:38:00,
2013-05-25 17:43:00,70.3,36.5,30.22,SE,135,2.5,6.1,29,0.00,CLR,,0.00,WeatherDisplay:10.37,2013-05-25 21:43:00,
2013-05-25 17:48:00,69.8,35.2,30.22,ESE,104,3.0,4.9,28,0.00,CLR,,0.00,WeatherDisplay:10.37,2013-05-25 21:48:00,
2013-05-25 17:53:00,69.5,38.3,30.22,South,182,1.0,3.5,32,0.00,CLR,,0.00,WeatherDisplay:10.37,2013-05-25 21:53:00,
2013-05-25 17:58:00,69.4,35.7,30.22,ESE,114,5.7,8.1,29,0.00,CLR,,0.00,WeatherDisplay:10.37,2013-05-25 21:58:00,
2013-05-25 18:03:00,69.2,40.4,30.22,ESE,106,4.1,4.6,35,0.00,CLR,,0.00,WeatherDisplay:10.37,2013-05-25 22:03:00,
2013-05-25 18:09:00,68.9,37.8,30.21,SE,131,0.0,1.2,32,0.00,CLR,,0.00,WeatherDisplay:10.37,2013-05-25 22:09:00,
2013-05-25 18:14:00,68.6,35.9,30.21,ESE,116,5.5,8.5,30,0.00,CLR,,0.00,WeatherDisplay:10.37,2013-05-25 22:14:00,
2013-05-25 18:19:00,68.5,35.0,30.20,East,90,4.2,5.8,29,0.00,CLR,,0.00,WeatherDisplay:10.37,2013-05-25 22:19:00,
2013-05-25 18:24:00,68.1,40.1,30.21,East,87,0.7,2.3,36,0.00,CLR,,0.00,WeatherDisplay:10.37,2013-05-25 22:24:00,
2013-05-25 18:29:00,67.4,36.5,30.21,East,89,0.0,1.2,32,0.00,CLR,,0.00,WeatherDisplay:10.37,2013-05-25 22:29:00,
2013-05-25 18:34:00,66.1,42.9,30.21,NNE,32,0.1,1.1,43,0.00,CLR,,0.00,WeatherDisplay:10.37,2013-05-25 22:34:00,
2013-05-25 18:39:00,65.1,38.2,30.22,NW,313,0.3,1.1,37,0.00,CLR,,0.00,WeatherDisplay:10.37,2013-05-25 22:39:00,
2013-05-25 18:44:00,64.4,42.0,30.22,NW,313,0.0,0.0,44,0.00,CLR,,0.00,WeatherDisplay:10.37,2013-05-25 22:44:00,
2013-05-25 18:49:00,63.7,39.5,30.22,NW,313,0.0,0.0,41,0.00,CLR,,0.00,WeatherDisplay:10.37,2013-05-25 22:49:00,
2013-05-25 18:54:00,63.1,41.4,30.22,NW,314,0.0,0.0,45,0.00,CLR,,0.00,WeatherDisplay:10.37,2013-05-25 22:54:00,
2013-05-25 18:59:00,62.8,38.7,30.22,South,181,0.4,1.1,41,0.00,CLR,,0.00,WeatherDisplay:10.37,2013-05-25 22:59:00,
2013-05-25 19:04:00,62.8,40.0,30.22,NW,320,0.0,0.0,43,0.00,CLR,,0.00,WeatherDisplay:10.37,2013-05-25 23:04:00,
2013-05-25 19:09:00,62.3,39.5,30.22,SW,229,2.3,4.6,43,0.00,CLR,,0.00,WeatherDisplay:10.37,2013-05-25 23:09:00,
2013-05-25 19:14:00,62.3,40.7,30.22,NW,314,1.5,3.5,45,0.00,CLR,,0.00,WeatherDisplay:10.37,2013-05-25 23:14:00,
2013-05-25 19:19:00,61.5,39.9,30.22,NW,314,0.0,0.0,45,0.00,CLR,,0.00,WeatherDisplay:10.37,2013-05-25 23:19:00,
2013-05-25 19:24:00,61.1,43.3,30.23,NW,314,0.0,0.0,52,0.00,CLR,,0.00,WeatherDisplay:10.37,2013-05-25 23:24:00,
2013-05-25 19:29:00,60.4,41.7,30.22,NW,313,0.0,0.0,50,0.00,CLR,,0.00,WeatherDisplay:10.37,2013-05-25 23:29:00,
2013-05-25 19:34:00,59.8,41.6,30.22,NW,313,0.0,0.0,51,0.00,CLR,,0.00,WeatherDisplay:10.37,2013-05-25 23:34:00,
2013-05-25 19:39:00,59.3,40.7,30.22,NW,313,0.0,0.0,50,0.00,CLR,,0.00,WeatherDisplay:10.37,2013-05-25 23:39:00,
2013-05-25 19:44:00,58.8,39.7,30.22,NW,313,0.0,0.0,49,0.00,CLR,,0.00,WeatherDisplay:10.37,2013-05-25 23:44:00,
2013-05-25 19:49:00,58.5,40.4,30.22,NW,313,0.0,0.0,51,0.00,CLR,,0.00,WeatherDisplay:10.37,2013-05-25 23:49:00,
2013-05-25 19:54:00,58.2,41.1,30.23,NW,312,0.0,1.1,53,0.00,CLR,,0.00,WeatherDisplay:10.37,2013-05-25 23:54:00,
2013-05-25 19:59:00,58.0,40.0,30.23,NW,312,0.0,0.0,51,0.00,CLR,,0.00,WeatherDisplay:10.37,2013-05-25 23:59:00,
2013-05-25 20:04:00,57.8,41.3,30.23,NW,312,0.0,0.0,54,0.00,CLR,,0.00,WeatherDisplay:10.37,2013-05-26 00:04:00,
2013-05-25 20:09:00,57.4,39.4,30.23,NW,312,0.0,0.0,51,0.00,CLR,,0.00,WeatherDisplay:10.37,2013-05-26 00:09:00,
2013-05-25 20:14:00,57.3,40.3,30.23,NW,312,0.0,0.0,53,0.00,CLR,,0.00,WeatherDisplay:10.37,2013-05-26 00:14:00,
2013-05-25 20:19:00,57.1,40.6,30.23,NW,312,0.0,1.1,54,0.00,CLR,,0.00,WeatherDisplay:10.37,2013-05-26 00:19:00,
2013-05-25 20:24:00,56.8,41.3,30.23,NW,312,1.6,2.4,56,0.00,CLR,,0.00,WeatherDisplay:10.37,2013-05-26 00:24:00,
2013-05-25 20:29:00,56.6,40.1,30.23,NW,312,0.0,1.1,54,0.00,CLR,,0.00,WeatherDisplay:10.37,2013-05-26 00:29:00,
2013-05-25 20:34:00,56.5,38.6,30.23,NW,312,0.1,1.2,51,0.00,CLR,,0.00,WeatherDisplay:10.37,2013-05-26 00:34:00,
2013-05-25 20:39:00,56.5,41.0,30.22,NW,310,1.5,3.5,56,0.00,CLR,,0.00,WeatherDisplay:10.37,2013-05-26 00:39:00,
2013-05-25 20:44:00,56.3,38.9,30.22,NW,310,0.1,2.3,52,0.00,CLR,,0.00,WeatherDisplay:10.37,2013-05-26 00:44:00,
2013-05-25 20:49:00,55.9,39.0,30.22,NW,310,0.0,0.0,53,0.00,CLR,,0.00,WeatherDisplay:10.37,2013-05-26 00:49:00,
2013-05-25 20:54:00,55.7,39.3,30.22,NW,310,0.0,0.0,54,0.00,CLR,,0.00,WeatherDisplay:10.37,2013-05-26 00:54:00,
2013-05-25 20:59:00,55.4,38.5,30.22,NW,310,0.0,0.0,53,0.00,CLR,,0.00,WeatherDisplay:10.37,2013-05-26 00:59:00,
2013-05-25 21:04:00,55.1,38.3,30.22,NW,310,0.0,0.0,53,0.00,CLR,,0.00,WeatherDisplay:10.37,2013-05-26 01:04:00,
2013-05-25 21:09:00,54.4,38.1,30.23,NW,310,0.0,1.1,54,0.00,CLR,,0.00,WeatherDisplay:10.37,2013-05-26 01:09:00,
2013-05-25 21:14:00,54.0,39.1,30.23,NW,310,0.0,0.0,57,0.00,CLR,,0.00,WeatherDisplay:10.37,2013-05-26 01:14:00,
2013-05-25 21:19:00,53.6,37.3,30.23,NW,310,0.0,0.0,54,0.00,CLR,,0.00,WeatherDisplay:10.37,2013-05-26 01:19:00,
2013-05-25 21:24:00,53.2,38.4,30.23,NW,310,0.0,0.0,57,0.00,CLR,,0.00,WeatherDisplay:10.37,2013-05-26 01:24:00,
2013-05-25 21:29:00,52.9,37.6,30.23,NW,310,0.0,0.0,56,0.00,CLR,,0.00,WeatherDisplay:10.37,2013-05-26 01:29:00,
2013-05-25 21:34:00,52.6,37.8,30.23,NW,310,0.0,0.0,57,0.00,CLR,,0.00,WeatherDisplay:10.37,2013-05-26 01:34:00,
2013-05-25 21:39:00,52.4,37.2,30.23,NW,310,0.0,0.0,56,0.00,CLR,,0.00,WeatherDisplay:10.37,2013-05-26 01:39:00,
2013-05-25 21:44:00,52.2,38.7,30.23,NW,310,0.1,0.0,60,0.00,CLR,,0.00,WeatherDisplay:10.37,2013-05-26 01:44:00,
2013-05-25 21:49:00,52.0,36.8,30.23,NW,310,0.0,0.0,56,0.00,CLR,,0.00,WeatherDisplay:10.37,2013-05-26 01:49:00,
2013-05-25 21:54:00,51.9,37.1,30.22,NW,310,0.0,1.1,57,0.00,CLR,,0.00,WeatherDisplay:10.37,2013-05-26 01:54:00,
2013-05-25 21:59:00,51.6,36.4,30.22,NW,310,0.0,0.0,56,0.00,CLR,,0.00,WeatherDisplay:10.37,2013-05-26 01:59:00,
2013-05-25 22:04:00,51.5,37.2,30.22,NW,310,0.0,0.0,58,0.00,CLR,,0.00,WeatherDisplay:10.37,2013-05-26 02:04:00,
2013-05-25 22:09:00,51.2,36.9,30.22,NW,310,0.0,0.0,58,0.00,CLR,,0.00,WeatherDisplay:10.37,2013-05-26 02:09:00,
2013-05-25 22:14:00,51.1,36.8,30.22,NW,310,0.0,0.0,58,0.00,CLR,,0.00,WeatherDisplay:10.37,2013-05-26 02:14:00,
2013-05-25 22:19:00,50.9,37.1,30.22,NW,310,0.0,0.0,59,0.00,CLR,,0.00,WeatherDisplay:10.37,2013-05-26 02:19:00,
2013-05-25 22:24:00,50.7,37.7,30.22,NW,310,0.0,0.0,61,0.00,CLR,,0.00,WeatherDisplay:10.37,2013-05-26 02:24:00,
2013-05-25 22:29:00,50.6,37.6,30.22,NW,310,0.0,0.0,61,0.00,CLR,,0.00,WeatherDisplay:10.37,2013-05-26 02:29:00,
2013-05-25 22:34:00,50.5,37.5,30.22,NW,310,0.0,0.0,61,0.00,CLR,,0.00,WeatherDisplay:10.37,2013-05-26 02:34:00,
2013-05-25 22:39:00,50.5,38.0,30.21,NW,310,0.0,0.0,62,0.00,CLR,,0.00,WeatherDisplay:10.37,2013-05-26 02:39:00,
2013-05-25 22:44:00,50.5,38.0,30.20,NW,310,0.0,0.0,62,0.00,CLR,,0.00,WeatherDisplay:10.37,2013-05-26 02:44:00,
2013-05-25 22:49:00,50.4,38.3,30.21,NW,310,0.0,0.0,63,0.00,CLR,,0.00,WeatherDisplay:10.37,2013-05-26 02:49:00,
2013-05-25 22:54:00,50.4,37.9,30.20,NW,310,0.0,0.0,62,0.00,CLR,,0.00,WeatherDisplay:10.37,2013-05-26 02:54:00,
2013-05-25 22:59:00,50.2,38.5,30.20,NW,310,0.0,0.0,64,0.00,CLR,,0.00,WeatherDisplay:10.37,2013-05-26 02:59:00,
2013-05-25 23:04:00,50.1,39.2,30.20,NW,310,0.0,0.0,66,0.00,CLR,,0.00,WeatherDisplay:10.37,2013-05-26 03:04:00,
2013-05-25 23:09:00,50.2,38.9,30.20,NW,310,0.0,1.2,65,0.00,CLR,,0.00,WeatherDisplay:10.37,2013-05-26 03:09:00,
2013-05-25 23:14:00,50.1,39.2,30.20,NW,319,0.0,0.0,66,0.00,CLR,,0.00,WeatherDisplay:10.37,2013-05-26 03:14:00,
2013-05-25 23:19:00,50.0,39.1,30.20,NW,318,0.0,0.0,66,0.00,CLR,,0.00,WeatherDisplay:10.37,2013-05-26 03:19:00,
2013-05-25 23:24:00,49.9,38.2,30.22,NW,319,0.0,0.0,64,0.00,CLR,,0.00,WeatherDisplay:10.37,2013-05-26 03:24:00,
2013-05-25 23:29:00,49.8,38.5,30.22,NW,318,0.0,0.0,65,0.00,CLR,,0.00,WeatherDisplay:10.37,2013-05-26 03:29:00,
2013-05-25 23:34:00,49.7,38.4,30.22,NW,318,0.0,0.0,65,0.00,CLR,,0.00,WeatherDisplay:10.37,2013-05-26 03:34:00,
2013-05-25 23:39:00,49.6,38.3,30.23,NW,319,0.0,0.0,65,0.00,CLR,,0.00,WeatherDisplay:10.37,2013-05-26 03:39:00,
2013-05-25 23:44:00,49.4,38.5,30.23,NW,319,0.0,0.0,66,0.00,CLR,,0.00,WeatherDisplay:10.37,2013-05-26 03:44:00,
2013-05-25 23:49:00,49.3,38.0,30.23,NW,319,0.0,0.0,65,0.00,CLR,,0.00,WeatherDisplay:10.37,2013-05-26 03:49:00,
2013-05-25 23:54:00,49.1,37.4,30.23,NW,318,0.0,0.0,64,0.00,CLR,,0.00,WeatherDisplay:10.37,2013-05-26 03:54:00,
2013-05-25 23:59:00,49.0,37.7,30.23,NW,318,0.0,0.0,65,0.00,CLR,,0.00,WeatherDisplay:10.37,2013-05-26 03:59:00,